Lapse_Rate
8.2 8.3 8.3 8.3 8.2 8.1 8.0 7.8 7.7 7.7 8.0 7.9 7.8 7.9 8.1 7.9 7.9 7.8 7.8 7.9 7.9 7.7 7.7 7.7 7.6 7.4 7.4 7.2 6.9 6.7 6.8 6.7
8.6 8.5 8.3 8.2 8.3 8.2 8.3 8.1 8.0 7.8 8.0 8.3 8.3 8.3 8.1 8.2 8.0 7.9 8.0 7.9 8.0 7.9 7.9 7.7 7.6 7.6 7.4 7.2 7.3 7.3 7.0 7.0
8.6 8.6 8.3 8.0 8.2 8.2 8.4 8.3 8.1 8.1 8.1 8.2 8.2 8.2 8.1 8.0 8.0 8.0 8.0 7.9 7.9 8.0 7.9 7.7 7.7 7.7 7.7 7.5 7.3 7.2 7.1 7.0
8.0 8.1 8.1 8.1 7.9 8.1 8.3 8.4 8.3 8.0 7.9 7.7 7.7 7.7 8.0 8.1 8.5 8.6 8.5 8.3 8.1 8.1 8.0 7.8 7.5 7.6 7.7 7.7 7.5 7.3 7.0 6.9
7.3 7.6 7.8 7.9 8.0 8.1 8.1 8.3 8.3 8.3 8.2 7.7 7.6 7.4 7.5 8.1 8.1 8.1 8.2 8.2 8.0 8.0 8.0 7.8 7.6 7.5 7.6 7.7 7.6 7.5 7.1 6.7
7.5 7.4 7.5 7.6 7.7 7.9 8.0 8.0 8.1 8.2 8.3 8.3 7.9 7.8 7.8 7.8 7.8 7.9 8.1 8.2 8.3 7.8 7.8 7.9 7.6 7.6 7.5 7.6 7.4 7.2 6.3 6.1
7.0 7.1 7.4 7.6 7.5 7.4 7.5 7.7 7.6 7.8 7.6 7.9 8.3 8.2 8.1 8.1 8.1 8.2 8.3 8.3 8.2 8.3 7.8 8.0 7.7 7.5 7.5 7.5 7.4 6.4 6.1 6.0
7.2 7.4 7.4 7.4 7.5 7.7 7.7 7.7 7.5 7.3 7.7 7.8 7.8 8.1 8.1 8.1 8.1 8.2 8.4 8.6 8.6 8.4 8.1 7.9 7.5 7.2 7.5 7.4 7.1 6.1 5.8 5.7
6.5 6.6 6.8 7.1 7.3 7.4 7.5 7.6 7.5 7.4 7.2 7.4 7.8 7.8 8.0 8.0 7.9 8.2 8.5 8.8 9.0 8.8 8.5 7.9 7.4 7.1 7.0 7.0 6.3 6.0 5.6 5.5
5.9 6.1 6.7 7.0 6.9 7.0 7.1 7.3 7.3 7.2 7.1 7.2 7.3 7.5 7.7 7.9 7.9 8.0 8.2 8.8 9.2 9.1 9.0 8.4 7.6 7.0 6.9 6.7 6.3 5.9 5.3 5.5
5.9 5.9 5.9 6.2 6.5 6.8 6.9 6.8 6.8 7.0 6.9 6.7 6.7 7.0 7.3 7.6 7.6 7.9 8.0 8.5 9.0 9.3 9.2 8.7 7.7 7.2 6.8 6.7 6.6 6.5 6.0 5.6
6.4 6.5 6.4 6.0 6.3 6.5 6.7 6.9 7.0 7.1 7.1 7.1 7.0 7.0 7.0 7.4 7.6 7.6 7.8 8.2 8.6 9.0 9.1 8.6 8.1 7.4 6.8 6.7 6.6 6.3 6.3 6.2
6.5 6.4 6.5 6.5 6.5 6.6 6.5 6.8 7.0 7.0 7.2 7.1 7.3 7.4 7.2 7.6 7.8 7.8 7.9 8.4 8.7 9.0 8.6 8.3 8.2 7.7 7.1 6.9 6.7 6.5 6.4 6.4
6.2 6.4 6.4 6.6 6.6 6.6 6.7 6.7 6.9 6.9 6.9 7.0 6.9 7.4 7.5 7.9 8.0 7.9 8.1 8.4 8.7 8.9 8.2 8.2 8.2 7.7 7.2 6.9 6.9 6.7 6.2 6.1
5.7 5.7 5.8 6.0 6.3 6.5 6.7 6.9 6.9 6.8 6.8 6.7 6.7 7.0 7.5 7.8 8.1 8.2 8.2 8.3 8.4 8.4 8.0 7.8 7.8 7.5 7.2 6.9 6.6 6.5 6.3 6.0
5.7 5.8 5.6 5.7 6.0 6.3 6.5 6.6 6.8 7.0 7.1 6.9 6.8 6.7 6.9 7.2 7.7 8.0 7.9 7.6 7.7 7.9 7.9 7.6 7.8 7.5 7.2 7.0 6.6 6.5 6.4 6.5
5.9 5.8 5.6 5.2 5.4 6.0 6.3 6.5 6.6 6.8 7.1 7.2 7.0 7.0 6.9 7.0 6.9 7.0 6.7 7.4 7.6 7.8 7.5 7.6 7.5 7.3 7.0 6.7 6.5 6.5 6.8 6.6
6.1 5.9 5.7 5.4 5.7 5.7 5.9 6.1 6.1 6.2 6.5 6.8 7.2 7.1 7.2 7.1 6.6 6.9 6.9 6.7 7.0 7.4 7.4 7.3 7.2 6.9 6.8 6.6 6.1 6.3 6.6 6.1
6.6 6.0 5.8 5.8 5.9 6.0 6.0 6.1 6.2 6.2 6.3 6.4 6.6 7.2 7.1 7.4 6.9 6.4 6.7 6.7 6.8 6.9 6.9 6.9 6.8 6.7 6.6 6.4 6.0 6.3 6.4 6.0
Wind_Speed
14 16 17 18 16 18 17 16 18 17 12 12 11 11 12 17 16 18 20 21 23 20 15 14 16 9 9 9 9 6 4 7
13 12 12 13 14 17 20 19 18 14 13 13 12 13 12 12 11 20 22 22 23 19 11 12 12 12 12 12 8 10 4 7
12 11 9 11 14 17 18 20 19 17 13 12 11 11 11 12 12 15 23 22 22 18 15 14 15 12 13 12 12 6 4 9
11 13 13 10 11 13 15 19 18 18 17 11 10 9 9 11 14 13 15 22 23 20 17 15 14 13 11 13 13 15 8 8
10 12 14 14 13 10 11 14 16 15 17 15 19 14 14 14 13 13 13 18 18 20 17 17 15 12 13 12 11 12 8 8
14 14 12 13 13 12 9 9 13 14 16 19 15 18 15 12 11 16 17 15 19 17 17 17 16 13 13 14 13 10 8 5
15 14 14 13 12 12 12 13 9 13 16 18 21 21 19 14 16 13 13 12 12 19 20 18 17 15 14 13 12 14 11 7
14 18 17 15 14 13 11 13 15 10 14 17 20 23 21 21 19 15 15 12 11 16 20 18 15 16 14 11 12 11 11 9
17 17 15 16 16 14 12 14 14 15 13 15 17 20 15 15 18 16 14 14 13 15 18 17 18 16 14 11 8 8 8 8
18 18 13 13 16 16 14 15 14 14 15 14 16 17 20 19 21 18 14 15 12 14 17 16 15 15 16 16 11 13 10 7
19 17 15 11 12 14 14 14 15 15 15 14 14 18 19 20 19 20 18 15 14 13 16 16 15 15 15 14 11 11 13 9
18 18 17 15 13 12 12 13 16 17 17 16 15 16 18 18 18 18 17 15 12 13 16 15 15 15 13 12 11 14 13 12
18 17 15 15 15 15 14 12 14 16 17 17 16 16 13 14 15 16 14 14 12 15 14 16 14 15 15 15 16 16 16 15
18 16 15 14 14 14 16 14 15 15 17 18 18 15 12 13 13 12 8 10 13 12 14 15 16 16 16 15 17 18 16 17
17 15 15 13 12 14 16 15 15 16 16 18 19 16 12 11 10 8 12 12 13 14 14 14 15 16 17 17 17 18 16 15
17 17 16 14 14 14 15 16 15 16 17 17 18 18 13 4 7 10 12 13 12 13 14 13 15 15 13 19 18 19 19 16
20 20 16 14 15 16 14 14 15 15 16 17 17 17 12 5 6 8 8 9 11 12 13 15 15 11 19 23 23 17 18 18
21 20 13 12 17 16 17 16 14 15 15 17 16 16 13 6 4 3 8 9 10 12 12 14 15 14 25 25 26 16 17 16
18 11 14 17 19 17 16 16 15 15 16 15 15 14 13 6 8 7 6 7 11 12 13 14 14 14 27 28 27 19 16 16
Wind_Direction
268 252 241 234 227 219 213 207 212 212 209 214 215 221 223 222 222 221 217 217 214 214 220 220 217 217 209 201 196 178 192 169
284 281 276 254 230 218 217 214 210 198 204 207 214 218 218 225 224 219 218 215 211 211 219 219 216 216 212 200 185 177 165 158
308 327 306 274 248 227 222 219 212 210 210 215 220 219 228 225 222 224 221 219 214 213 213 215 213 216 213 194 180 168 179 181
338 350 341 321 292 260 235 228 221 214 214 213 218 228 228 224 224 225 222 218 216 214 211 211 211 211 207 196 187 179 179 190
1 2 357 350 344 324 278 245 232 221 206 210 214 219 225 226 227 225 220 218 222 218 215 209 205 208 209 195 187 192 173 177
6 4 2 352 348 343 327 295 244 225 211 213 217 223 232 230 226 227 217 214 215 217 215 208 207 204 204 191 177 189 189 172
9 4 357 352 342 337 332 328 302 243 222 219 223 228 230 229 226 225 222 215 211 212 212 209 207 205 197 188 186 190 188 163
1 358 354 351 340 330 322 321 313 301 243 230 228 232 231 233 234 230 223 217 213 211 207 205 205 202 189 174 182 190 192 179
350 351 346 343 338 330 317 312 305 300 282 254 242 239 239 236 236 234 231 227 220 208 206 207 205 188 182 165 177 166 183 162
340 336 337 335 336 332 323 312 305 293 286 282 268 254 243 239 237 235 233 229 226 205 199 197 191 177 180 170 167 163 161 169
334 331 328 325 328 326 325 317 310 302 287 278 277 270 256 246 240 234 229 224 216 197 186 191 183 176 173 172 161 158 154 149
323 321 325 325 328 330 329 328 326 321 315 299 286 271 260 245 239 237 230 218 191 182 185 186 179 173 171 168 157 148 138 126
312 311 310 316 324 325 328 329 329 325 319 313 300 286 261 242 239 237 230 208 172 177 188 185 177 169 160 157 149 146 141 139
306 302 304 314 319 322 326 329 327 326 324 321 313 300 257 238 232 227 203 173 171 181 179 177 169 164 159 157 150 146 149 147
301 298 302 309 314 319 325 326 327 328 329 323 317 315 279 236 228 180 168 172 178 179 177 172 167 160 155 150 153 144 144 149
298 297 304 309 317 322 323 324 324 327 330 329 320 315 301 240 178 181 183 180 181 172 163 165 158 156 158 158 156 151 149 147
294 288 297 307 315 316 317 318 319 322 325 330 328 314 296 267 248 181 181 166 166 167 165 168 163 162 167 158 152 154 150 147
294 292 285 303 316 308 308 313 311 313 319 326 331 320 299 250 232 184 162 160 157 162 170 167 165 166 161 156 147 149 147 146
296 291 297 303 308 296 301 306 306 307 311 317 321 320 301 236 203 192 163 162 168 167 172 174 168 165 159 152 145 145 144 146